(°C)
14°
16°
18°
19°
20°
20°
20°
(°C)
11°
14°
16°
17°
18°
17°
17°
ЗЮЗ
ЮЗ
ЮЮЗ
ЮЗ
ЗЮЗ
ЗЮЗ
З
(км/ч)
4-8
5-10
5-17
6-16
6-15
6-15
5-15
(мм)
0
0
0
0
0
0
0
(%)
0
0
0
0
0
0
0

Sun elevation

/ 56.4°
sun-icon
UV 9
05:46
20:35
Убывающая луна (324°)
04:51
17:10

METAR for Инсбрук (LOWI)

Время Условия Температура/
Точка росы
Ветер Видимость Погода Облачность Давление Изменить Необработанный
VFR 13°C / 1°C variable 3kt >10km - Clouds and Visibility OK 1019 No Significant change LOWI 080950Z VRB03KT CAVOK 13/01 Q1019 NOSIG
VFR 12°C / -1°C variable 2kt >10km - Clouds and Visibility OK 1020 No Significant change LOWI 080920Z VRB02KT CAVOK 12/M01 Q1020 NOSIG
VFR 11°C / 0°C variable 3kt >10km - Clouds and Visibility OK 1020 No Significant change LOWI 080850Z VRB03KT CAVOK 11/M00 Q1020 NOSIG
VFR 9°C / -1°C variable 2kt >10km - Clouds and Visibility OK 1020 No Significant change LOWI 080820Z VRB02KT CAVOK 09/M01 Q1020 NOSIG
VFR 8°C / -1°C 240º variable 160º to 290º 3kt >10km - Clouds and Visibility OK 1021 No Significant change LOWI 080750Z 24003KT 160V290 CAVOK 08/M01 Q1021 NOSIG
VFR 7°C / 0°C 250º variable 210º to 310º 4kt >10km - Clouds and Visibility OK 1021 No Significant change LOWI 080720Z 25004KT 210V310 CAVOK 07/M00 Q1021 NOSIG
VFR 6°C / 0°C 250º 5kt >10km - Clouds and Visibility OK 1021 No Significant change LOWI 080650Z 25005KT CAVOK 06/00 Q1021 NOSIG
VFR 4°C / 0°C 260º 4kt >10km - Clouds and Visibility OK 1022 No Significant change LOWI 080620Z 26004KT CAVOK 04/M00 Q1022 NOSIG
VFR 3°C / 0°C 280º 4kt >10km - Clouds and Visibility OK 1022 No Significant change LOWI 080550Z 28004KT CAVOK 03/M00 Q1022 NOSIG
VFR 2°C / 0°C 260º 3kt >10km - Clouds and Visibility OK 1022 No Significant change LOWI 080520Z 26003KT CAVOK 02/M00 Q1022 NOSIG
VFR 2°C / -1°C 270º 2kt >10km - Clouds and Visibility OK 1022 No Significant change LOWI 080450Z 27002KT CAVOK 02/M01 Q1022 NOSIG
VFR 1°C / -2°C 260º 3kt >10km - Clouds and Visibility OK 1022 No Significant change LOWI 080420Z 26003KT CAVOK 01/M02 Q1022 NOSIG
VFR 0°C / -2°C variable 1kt >10km - Clouds and Visibility OK 1022 No Significant change LOWI 080350Z VRB01KT CAVOK 00/M02 Q1022 NOSIG
VFR 1°C / -2°C 280º variable 250º to 310º 3kt >10km - Clear 1022 - LOWI 080320Z AUTO 28003KT 250V310 9999 NCD 01/M02 Q1022
VFR 1°C / -2°C variable 2kt >10km - Clear 1022 - LOWI 080250Z AUTO VRB02KT 9999 NCD 01/M02 Q1022
VFR 1°C / -2°C variable 1kt >10km - Clear 1022 - LOWI 080220Z AUTO VRB01KT 9999 NCD 01/M02 Q1022
VFR 1°C / -2°C variable 1kt >10km - Clear 1022 - LOWI 080150Z AUTO VRB01KT 9999 NCD 01/M02 Q1022
VFR 2°C / -2°C variable 1kt >10km - Clear 1021 - LOWI 080120Z AUTO VRB01KT 9999 NCD 02/M02 Q1021
VFR 2°C / -2°C variable 1kt >10km - Clear 1021 - LOWI 080050Z AUTO VRB01KT 9999 NCD 02/M02 Q1021
VFR 3°C / -1°C variable 2kt >10km - Clear 1021 - LOWI 080020Z AUTO VRB02KT 9999 NCD 03/M01 Q1021
VFR 3°C / -2°C variable 2kt >10km - Clear 1021 - LOWI 072350Z AUTO VRB02KT 9999 NCD 03/M02 Q1021
VFR 4°C / -1°C variable 2kt >10km - Clear 1021 - LOWI 072320Z AUTO VRB02KT 9999 NCD 04/M01 Q1021
VFR 4°C / -1°C 150º variable 090º to 170º 3kt >10km - Few Clouds 8000ft 1021 - LOWI 072250Z AUTO 15003KT 090V170 9999 FEW080 04/M01 Q1021
VFR 5°C / -1°C variable 2kt >10km - Clear 1021 - LOWI 072220Z AUTO VRB02KT 9999 NCD 05/M01 Q1021

VFR

13°C / 1°C

[Больше]
Ветер variable 3kt
Видимость >10km
Погода -
Облачность Clouds and Visibility OK
Давление 1019
Изменить No Significant change
Необработанный LOWI 080950Z VRB03KT CAVOK 13/01 Q1019 NOSIG

VFR

12°C / -1°C

[Больше]
Ветер variable 2kt
Видимость >10km
Погода -
Облачность Clouds and Visibility OK
Давление 1020
Изменить No Significant change
Необработанный LOWI 080920Z VRB02KT CAVOK 12/M01 Q1020 NOSIG

VFR

11°C / 0°C

[Больше]
Ветер variable 3kt
Видимость >10km
Погода -
Облачность Clouds and Visibility OK
Давление 1020
Изменить No Significant change
Необработанный LOWI 080850Z VRB03KT CAVOK 11/M00 Q1020 NOSIG

VFR

9°C / -1°C

[Больше]
Ветер variable 2kt
Видимость >10km
Погода -
Облачность Clouds and Visibility OK
Давление 1020
Изменить No Significant change
Необработанный LOWI 080820Z VRB02KT CAVOK 09/M01 Q1020 NOSIG

VFR

8°C / -1°C

[Больше]
Ветер 240º variable 160º to 290º 3kt
Видимость >10km
Погода -
Облачность Clouds and Visibility OK
Давление 1021
Изменить No Significant change
Необработанный LOWI 080750Z 24003KT 160V290 CAVOK 08/M01 Q1021 NOSIG

VFR

7°C / 0°C

[Больше]
Ветер 250º variable 210º to 310º 4kt
Видимость >10km
Погода -
Облачность Clouds and Visibility OK
Давление 1021
Изменить No Significant change
Необработанный LOWI 080720Z 25004KT 210V310 CAVOK 07/M00 Q1021 NOSIG

VFR

6°C / 0°C

[Больше]
Ветер 250º 5kt
Видимость >10km
Погода -
Облачность Clouds and Visibility OK
Давление 1021
Изменить No Significant change
Необработанный LOWI 080650Z 25005KT CAVOK 06/00 Q1021 NOSIG

VFR

4°C / 0°C

[Больше]
Ветер 260º 4kt
Видимость >10km
Погода -
Облачность Clouds and Visibility OK
Давление 1022
Изменить No Significant change
Необработанный LOWI 080620Z 26004KT CAVOK 04/M00 Q1022 NOSIG

VFR

3°C / 0°C

[Больше]
Ветер 280º 4kt
Видимость >10km
Погода -
Облачность Clouds and Visibility OK
Давление 1022
Изменить No Significant change
Необработанный LOWI 080550Z 28004KT CAVOK 03/M00 Q1022 NOSIG

VFR

2°C / 0°C

[Больше]
Ветер 260º 3kt
Видимость >10km
Погода -
Облачность Clouds and Visibility OK
Давление 1022
Изменить No Significant change
Необработанный LOWI 080520Z 26003KT CAVOK 02/M00 Q1022 NOSIG

VFR

2°C / -1°C

[Больше]
Ветер 270º 2kt
Видимость >10km
Погода -
Облачность Clouds and Visibility OK
Давление 1022
Изменить No Significant change
Необработанный LOWI 080450Z 27002KT CAVOK 02/M01 Q1022 NOSIG

VFR

1°C / -2°C

[Больше]
Ветер 260º 3kt
Видимость >10km
Погода -
Облачность Clouds and Visibility OK
Давление 1022
Изменить No Significant change
Необработанный LOWI 080420Z 26003KT CAVOK 01/M02 Q1022 NOSIG

VFR

0°C / -2°C

[Больше]
Ветер variable 1kt
Видимость >10km
Погода -
Облачность Clouds and Visibility OK
Давление 1022
Изменить No Significant change
Необработанный LOWI 080350Z VRB01KT CAVOK 00/M02 Q1022 NOSIG

VFR

1°C / -2°C

[Больше]
Ветер 280º variable 250º to 310º 3kt
Видимость >10km
Погода -
Облачность Clear
Давление 1022
Изменить -
Необработанный LOWI 080320Z AUTO 28003KT 250V310 9999 NCD 01/M02 Q1022

VFR

1°C / -2°C

[Больше]
Ветер variable 2kt
Видимость >10km
Погода -
Облачность Clear
Давление 1022
Изменить -
Необработанный LOWI 080250Z AUTO VRB02KT 9999 NCD 01/M02 Q1022

VFR

1°C / -2°C

[Больше]
Ветер variable 1kt
Видимость >10km
Погода -
Облачность Clear
Давление 1022
Изменить -
Необработанный LOWI 080220Z AUTO VRB01KT 9999 NCD 01/M02 Q1022

VFR

1°C / -2°C

[Больше]
Ветер variable 1kt
Видимость >10km
Погода -
Облачность Clear
Давление 1022
Изменить -
Необработанный LOWI 080150Z AUTO VRB01KT 9999 NCD 01/M02 Q1022

VFR

2°C / -2°C

[Больше]
Ветер variable 1kt
Видимость >10km
Погода -
Облачность Clear
Давление 1021
Изменить -
Необработанный LOWI 080120Z AUTO VRB01KT 9999 NCD 02/M02 Q1021

VFR

2°C / -2°C

[Больше]
Ветер variable 1kt
Видимость >10km
Погода -
Облачность Clear
Давление 1021
Изменить -
Необработанный LOWI 080050Z AUTO VRB01KT 9999 NCD 02/M02 Q1021

VFR

3°C / -1°C

[Больше]
Ветер variable 2kt
Видимость >10km
Погода -
Облачность Clear
Давление 1021
Изменить -
Необработанный LOWI 080020Z AUTO VRB02KT 9999 NCD 03/M01 Q1021

VFR

3°C / -2°C

[Больше]
Ветер variable 2kt
Видимость >10km
Погода -
Облачность Clear
Давление 1021
Изменить -
Необработанный LOWI 072350Z AUTO VRB02KT 9999 NCD 03/M02 Q1021

VFR

4°C / -1°C

[Больше]
Ветер variable 2kt
Видимость >10km
Погода -
Облачность Clear
Давление 1021
Изменить -
Необработанный LOWI 072320Z AUTO VRB02KT 9999 NCD 04/M01 Q1021

VFR

4°C / -1°C

[Больше]
Ветер 150º variable 090º to 170º 3kt
Видимость >10km
Погода -
Облачность Few Clouds 8000ft
Давление 1021
Изменить -
Необработанный LOWI 072250Z AUTO 15003KT 090V170 9999 FEW080 04/M01 Q1021

VFR

5°C / -1°C

[Больше]
Ветер variable 2kt
Видимость >10km
Погода -
Облачность Clear
Давление 1021
Изменить -
Необработанный LOWI 072220Z AUTO VRB02KT 9999 NCD 05/M01 Q1021

TAF for Инсбрук (LOWI)

From till


Maximum Temperature 20ºC on . Minimum Temperature 3ºC on .
From till Wind 270º 5kt. Visibility 10km or more. Nil Significant Cloud.
Temporarly from till Wind 80º 8kt.
Becoming from till Wind 270º 8kt. Visibility 10km or more. Nil Significant Cloud.

Необработанный: TAF LOWI 080515Z 0806/0906 27005KT CAVOK TX20/0815Z TN03/0806Z TEMPO 0812/0818 08008KT BECMG 0903/0905 27008KT

Current satellite and rain images for Инсбрук, Австрия

  • Осадки:
  • <1 мм
  • 1-2 мм
  • 2-5 мм
  • >5 мм

Указатель местности находится на Инсбрук. [Больше]

The real-time satellite image combines visible light during daytime with infrared radiation during nighttime. At night, the image is not dark as infrared radiation can detect temperature differences. Unfortunately, low clouds and fog are difficult to distinguish from ground temperatures and thus can be almost invisible during the night. Meteosat satellite images for Europe are updated in real-time every 5 minutes. GOES-16/GOES-17 (North & South America) and Himawari (Asia) images update every 10 minutes.

Вероятность осадков оценивается по данным радиолокаторов и спутников. Спутниковые данные о возможности осадков в ночное время менее точные, чем дневные данные. Оранжевыми крестами отмечаются места,где обнаруживается молния (болееЕвропа).

Копирайт 2021 EUMETSAT / meteoblue. Данные о молниях предоставляются со стороны nowcast.

Радар Инсбрук

Индикатор местности находится на Инсбрук. Анимация показывает радар осадков за последний час, а также прогноз погоды для2h. Умеренная морось или легкий снег могут быть незаметны для радара. Интенсивность осадковмаркированна цветной кодировкой, начиная со светло-синего и заканчивая темно-пурпурным.
Copyright 2021 Deutscher Wetterdienst / meteoblue.

Погода в настоящий момент и предупреждения

EUMETNET – MeteoAlarm

pictomap

Источник: ZAMG

Возможны временные задержки между сведениями данного веб сайта и веб сайта www.meteoalarm.euwww.meteoalarm.eu.